Location: Avon
(37.7514°N, 90.2235°W)
Time: 17:29:18
(UTC+00:00)

Envisat - Pass Details

Date: 17 October 2024
Orbit: 761 x 763 km, 98.3° (Epoch: 05 November)

Event Time Altitude Azimuth Distance (km) Brightness Sun altitude
Rises 08:58:15 0° 14° (NNE) 3,231 6.6 -38.5°
Reaches altitude 10° 09:00:34 10° 17° (NNE) 2,301 5.8 -38.1°
Enters shadow 09:00:53 12° 17° (NNE) 2,173 5.7 -38.0°
